Christchurch, New Zealand

2:09 PM NZST on April 27, 2018 (GMT +1200)
Christchurch International

Weather History for NZCH - October, 2012

Change the Weather History Date:

Tuesday, October 9, 2012

  Actual Average Record
Temperature  
Mean Temperature 50 °F -  
Max Temperature 57 °F 60 °F 66 °F (2000)
Min Temperature 44 °F 42 °F 30 °F (2011)
Degree Days  
Heating Degree Days 14    
Moisture  
Dew Point 45 °F    
Average Humidity 88    
Maximum Humidity 100    
Minimum Humidity 77    
Precipitation  
Precipitation 0.00 in - - ()
Sea Level Pressure  
Sea Level Pressure 29.61 in    
Wind  
Wind Speed 9 mph ()    
Max Wind Speed 15 mph    
Max Gust Speed -    
Visibility 6.2 miles    
Events      
Averages and records for this station are not official NWS values.
T = Trace of Precipitation, MM = Missing Value Source: Averaged Metar Reports

Daily Weather History Graph

Daily Weather History Graph

Search for Another Location

Airport or City:

Astronomy

Oct. 09, 2012 Rise Set
Actual Time 6:48 AM NZDT 7:46 PM NZDT
Civil Twilight 6:19 AM NZDT 8:15 PM NZDT
Nautical Twilight 5:44 AM NZDT 8:50 PM NZDT
Astronomical Twilight 5:08 AM NZDT 9:26 PM NZDT
Moon 2:50 AM NZDT (10/9) 12:48 PM NZDT (10/9)
Length of Visible Light 13h 55m
Length of Day
12h 57m
Last Quarter, 44% of the Moon is Illuminated
Oct 9
Last Quarter
Oct 16
New
Oct 22
First Quarter
Oct 30
Full
Nov 7
Last Quarter

Hourly Weather History & Observations

Time (NZDT) Temp. Windchill Dew Point Humidity Pressure Visibility Wind Dir Wind Speed Gust Speed Precip Events Conditions
12:00 AM 44.6 °F 38.8 °F 42.8 °F 93% 29.56 in 6.2 mi West 11.5 mph - N/A   Overcast
1:00 AM 44.6 °F 38.8 °F 42.8 °F 93% 29.56 in 6.2 mi West 11.5 mph - N/A   Overcast
2:00 AM 44.6 °F 38.8 °F 42.8 °F 93% 29.56 in 6.2 mi West 11.5 mph - N/A   Overcast
3:00 AM 44.6 °F 39.2 °F 42.8 °F 93% 29.59 in 6.2 mi West 10.4 mph - N/A   Overcast
4:00 AM 44.6 °F 39.7 °F 42.8 °F 93% 29.56 in 6.2 mi West 9.2 mph - N/A   Mostly Cloudy
5:00 AM 44.6 °F 39.7 °F 44.6 °F 100% 29.56 in 6.2 mi West 9.2 mph - N/A   Mostly Cloudy
6:00 AM 46.4 °F 41.9 °F 44.6 °F 93% 29.59 in 6.2 mi West 9.2 mph - N/A   Mostly Cloudy
7:00 AM 46.4 °F 42.4 °F 44.6 °F 93% 29.59 in 6.2 mi West 8.1 mph - N/A   Mostly Cloudy
8:00 AM 46.4 °F 42.4 °F 44.6 °F 93% 29.62 in 6.2 mi West 8.1 mph - N/A   Mostly Cloudy
9:00 AM 48.2 °F - 46.4 °F 93% 29.62 in 6.2 mi West 10.4 mph - N/A   Mostly Cloudy
10:00 AM 50.0 °F - 46.4 °F 87% 29.62 in 6.2 mi West 11.5 mph - N/A   Mostly Cloudy
11:00 AM 51.8 °F - 46.4 °F 82% 29.65 in 6.2 mi West 11.5 mph - N/A   Mostly Cloudy
12:00 PM 53.6 °F - 48.2 °F 82% 29.65 in 6.2 mi West 10.4 mph - N/A   Mostly Cloudy
1:00 PM 53.6 °F - 46.4 °F 77% 29.65 in 6.2 mi WSW 15.0 mph - N/A   Mostly Cloudy
2:00 PM 57.2 °F - 50.0 °F 77% 29.65 in 6.2 mi West 12.7 mph - N/A   Mostly Cloudy
3:00 PM 53.6 °F - 48.2 °F 82% 29.62 in 6.2 mi WSW 10.4 mph - N/A   Mostly Cloudy
4:00 PM 53.6 °F - 46.4 °F 77% 29.62 in 6.2 mi WSW 13.8 mph - N/A   Mostly Cloudy
5:00 PM 53.6 °F - 46.4 °F 77% 29.62 in 6.2 mi SW 12.7 mph - N/A   Mostly Cloudy
6:00 PM 51.8 °F - 46.4 °F 82% 29.62 in 6.2 mi SW 10.4 mph - N/A   Mostly Cloudy
7:00 PM 50.0 °F - 46.4 °F 87% 29.62 in 6.2 mi SSW 11.5 mph - N/A   Mostly Cloudy
8:00 PM 48.2 °F - 46.4 °F 93% 29.65 in 6.2 mi SSW 8.1 mph - N/A   Partly Cloudy
9:00 PM 48.2 °F - 44.6 °F 87% 29.65 in 6.2 mi SW 4.6 mph - N/A   Partly Cloudy
10:00 PM 48.2 °F - 44.6 °F 87% 29.65 in 6.2 mi West 2.3 mph - N/A   Partly Cloudy
11:00 PM 46.4 °F - 44.6 °F 93% 29.65 in 6.2 mi WSW 2.3 mph - N/A   Partly Cloudy